Flag for U.S.A. Weather past 2 weeks in Barnstable, Massachusetts, U.S.A.

Now
75 °F

Sunny.


Feels Like: 75 °F
Forecast: 73 / 84 °F
Wind: N/A

Location: Barnstable Municipal-Boardman Airport

Current Time: Aug 4, 2015 at 11:57:46 AM

Latest Report: Aug 4, 2015 at 10:56 AM


Visibility: 10 mi

Pressure: 29.88 "Hg

Humidity: 82%

Dew point: 69 °F

Location of BarnstableLocation

Historic Weather in Barnstable — Graph

°F

Barnstable temperature yesterday

Maximum temperature yesterday: 84 °F (at 1:56 PM)
Minimum temperature yesterday: 73 °F (at 12:56 AM)
Average temperature yesterday: 78 °F

Past Weeks' High & Low Weather Summary

 TemperatureHumidityPressure
High89 °F (Jul 20, 10:56 AM)97% (Jul 29, 3:56 AM)30.05 "Hg (Jul 29, 3:56 AM)
Low58 °F (Jul 25, 3:56 AM)28% (Aug 2, 1:56 PM)29.54 "Hg (Jul 22, 1:56 AM)
Average75 °F74%29.85 "Hg
* Reported Jul 20 9:56 AM — Aug 4 9:56 AM, Barnstable, Weather by CustomWeather, © 2015

Note: Actual official high and low records may vary slightly from our data, if they occured in-between our weather recording intervals... More about our weather records

Advertising

Barnstable weather history for previous 24 hours

 ConditionsComfort  
Time TempWeatherWind HumidityBarometerVisibility
9:56 AM
Tue, Aug 4
70 °FThunderstorms. Broken clouds.5 mph90%29.88 "Hg10 mi
8:56 AM69 °FPartly sunny.3 mph90%29.87 "Hg10 mi
8:00 AM67 °FStrong thunderstorms. Fog.5 mph90%29.91 "Hg2 mi
6:56 AM77 °FMostly cloudy.13 mph90%29.84 "Hg7 mi
5:56 AM76 °FMostly cloudy.13 mph94%29.86 "Hg7 mi
4:56 AM76 °FPassing clouds.14 mph88%29.85 "Hg10 mi
3:56 AM77 °FOvercast.13 mph88%29.83 "Hg10 mi
2:56 AM78 °FMostly cloudy.16 mph84%29.84 "Hg10 mi
1:56 AM77 °FMostly cloudy.14 mph90%29.83 "Hg9 mi
12:56 AM76 °FPassing clouds.13 mph91%29.84 "Hg9 mi
11:56 PM
Mon, Aug 3
76 °FPassing clouds.14 mph88%29.85 "Hg9 mi
10:56 PM76 °FClear.14 mph85%29.85 "Hg10 mi
9:56 PM76 °FClear.16 mph85%29.85 "Hg10 mi
8:56 PM76 °FClear.13 mph85%29.83 "Hg10 mi
7:56 PM77 °FSunny.10 mph82%29.82 "Hg10 mi
6:56 PM78 °FSunny.12 mph79%29.80 "Hg10 mi
5:56 PM78 °FSunny.16 mph79%29.81 "Hg10 mi
4:56 PM81 °FSunny.12 mph69%29.81 "Hg10 mi
3:56 PM81 °FSunny.16 mph72%29.83 "Hg10 mi
2:56 PM83 °FSunny.14 mph68%29.84 "Hg10 mi
1:56 PM84 °FSunny.13 mph59%29.85 "Hg10 mi
12:56 PM83 °FSunny.16 mph65%29.87 "Hg10 mi
11:56 AM82 °FSunny.12 mph72%29.87 "Hg10 mi
Weather by CustomWeather, © 2015

See weather overviewHow to use our weather pages